Tracking 28920 objects as of 26-May-2024
HD Live streaming from Space Station
objects crossing your sky now

STARLINK-31842

Track STARLINK-31842 now!
10-day predictions
STARLINK-31842 is classified as:


NORAD ID: 59672
Int'l Code: 2024-084U
Perigee: 413.4 km
Apogee: 415.4 km
Inclination: 43.0 °
Period: 92.7 minutes
Semi major axis: 6785 km
RCS: Unknown
Launch date: May 6, 2024
Source: United States (US)
Launch site: AIR FORCE EASTERN TEST RANGE (AFETR)
Your satellite tracking list
Your tracking list is empty




NASA's NSSDC Master Catalog

Two Line Element Set (TLE):
1 59672U 24084U   24147.58334491 -.01705353  00000-0 -29549-1 0  9998
2 59672  42.9993 154.7625 0001522 269.6903  67.5077 15.53244796  4307
Source of the keplerian elements: AFSPC